CO3D 3

Last updated on Mon Sep 21 2026 00:02:46 GMT+0000 (Coordinated Universal Time)

1 64900U 25156B 26263.56485155 .00002713 00000+0 12839-3 0 9994 2 64900 97.4341 340.8867 0001306 115.9435 244.1935 15.20203162 64025
UTC large
Height (km)
Speed (km/s)
/
Latitude / Longitude
Inclination (degrees)
Orbital Period (minutes)
Azimuth
Elevation
Range (km)
Doppler Factor

Next 0 passes for location: London (51.5072 / 0.1276)

No passes found over London.
CO3D 3